Regional Weather Roundup
Issued by NWS Goodland, KS

Home | Current Version | Previous Version | Graphics & Text | Print | Product List | Glossary On
Versions: 1 2 3 4 5 6 7 8 9 10 11 12 13 14 15 16 17 18 19 20 21 22 23 24 25 26 27 28 29 30 31 32 33 34 35 36 37 38 39 40 41 42 43 44 45 46 47 48 49 50
500
ASUS43 KGLD 081359
RWRGLD

GOODLAND FORECAST AREA HOURLY WEATHER ROUNDUP
NATIONAL WEATHER SERVICE GOODLAND KS
700 AM MST MON FEB 08 2016

...OFFICIAL OBSERVATIONS...

CITY           SKY/WX    TMP DP  RH WIND       PRES   REMARKS
GOODLAND KS    CLOUDY    21  10  62 NW16      30.33R WCI   7
HILL CITY KS   CLEAR     28  15  58 NW22G30   30.29S WCI  14
IMPERIAL NEB   CLEAR     25  10  53 NW17G25   30.32S WCI  12
MCCOOK NEB     CLEAR     24  13  62 NW18      30.31R WCI  10
AKRON CO       CLOUDY    16  12  84 W16       30.34R WCI   1
BURLINGTON CO  CLOUDY    21  12  68 NW16      30.35R WCI   7
LIMON CO       CLOUDY    12   7  80 W13       30.37R WCI  -3
$$

...UNOFFICIAL OBSERVATIONS...

CITY           SKY/WX    TMP DP  RH WIND       PRES   REMARKS
COLBY KS       CLEAR     27  16  63 NW21G26   30.33R WCI  13
GOVE KS          N/A     29  32 100 MISG        N/A
LENORA KS        N/A     25  32 100 MISG        N/A
NORTON KS      CLEAR     25  12  58 NW22      30.26S WCI  10
KIT CARSON CO    N/A     23  13  64 MISG        N/A
$$




USA.gov is the U.S. government's official web portal to all federal, state and local government web resources and services.